Stations météo

réclame
Mon MeteoGroup
Bale-Mulhouse, France (7299): Température de l'air & dewpoint: 22.02.2020 19:00:00 - 28.02.2020 19:00:00 (CET)Bale-Mulhouse, France (7299): Température de l'air 5cm: 22.02.2020 19:00:00 - 28.02.2020 19:00:00 (CET)Bale-Mulhouse, France (7299): Température de l'air -20cm & Température de l'air -100cm: 22.02.2020 19:00:00 - 28.02.2020 19:00:00 (CET)Bale-Mulhouse, France (7299): Vitesse du vent & gusts: 22.02.2020 19:00:00 - 28.02.2020 19:00:00 (CET)Bale-Mulhouse, France (7299): Direction du vent: 22.02.2020 19:00:00 - 28.02.2020 19:00:00 (CET)Bale-Mulhouse, France (7299): reduced air pressure: 22.02.2020 19:00:00 - 28.02.2020 19:00:00 (CET)Bale-Mulhouse, France (7299): visibility: 22.02.2020 19:00:00 - 28.02.2020 19:00:00 (CET)Bale-Mulhouse, France (7299): Quantités de précipitations: 22.02.2020 19:00:00 - 28.02.2020 19:00:00 (CET)
Date & Time tt [°C] td [°C] tt 5cm [°C] tt -20cm [°C] tt -100cm [°C] ff [km/h] ff [knt] fx [km/h] fx [knt] dd ppp [hPa] vv [km] rr [mm]
28.02.2020 19:00:00 8,1 -4,1 7,1 6,4 7,0 13 7 18 10 SSE 1016,8 50 0,0
28.02.2020 18:00:00 8,8 -5,5 7,9 6,2 7,0 14 8 19 10 SSE 1016,8 50 0,0
28.02.2020 17:00:00 10,3 -5,7 10,7 6,0 7,0 4 2 18 10 ESE 1017,3 50 0,0
28.02.2020 16:00:00 11,3 -5,7 12,2 5,7 7,0 4 2 11 6 S 1017,6 50 0,0
28.02.2020 15:00:00 10,5 -5,1 12,4 5,5 7,1 5 3 16 9 WSW 1018,6 50 0,0
28.02.2020 14:00:00 9,7 -4,3 10,6 5,3 7,1 5 3 17 9 NNW 1020,0 50 0,0
28.02.2020 13:00:00 8,7 -3,2 10,7 5,1 7,1 9 5 22 12 W 1021,3 50 0,0
28.02.2020 12:00:00 8,4 -3,8 10,3 5,1 7,1 5 3 23 12 S 1022,4 50 0,0
28.02.2020 11:00:00 7,3 -2,5 10,3 5,0 7,1 6 3 21 11 S 1023,0 40 0,0
28.02.2020 10:00:00 6,0 -0,7 7,2 5,1 7,1 4 2 15 8 ESE 1023,6 40 0,0
28.02.2020 09:00:00 3,8 -0,2 0,8 5,2 7,1 6 3 13 7 SE 1024,0 40 0,0
28.02.2020 08:00:00 1,8 -1,1 -2,2 5,3 7,1 4 2 10 5 S 1023,6 40 0,0
28.02.2020 07:00:00 1,7 -1,6 -1,2 5,3 7,1 5 3 25 14 SW 1022,9 20 0,0
28.02.2020 06:00:00 2,7 -1,3 1,5 5,4 7,2 18 10 34 18 W 1022,0 20 0,0
28.02.2020 05:00:00 3,3 -0,5 1,9 5,5 7,2 26 14 41 22 W 1021,2 20 0,0
28.02.2020 04:00:00 2,7 -0,4 1,4 5,6 7,2 24 13 36 20 WSW 1020,6 58 0,0
28.02.2020 03:00:00 2,7 -0,2 1,3 5,6 7,2 11 6 38 21 WSW 1019,9 60 0,0
28.02.2020 02:00:00 2,3 -0,3 1,5 5,7 7,2 23 12 51 28 W 1018,7 60 0,0
28.02.2020 01:00:00 3,7 -0,3 2,4 5,8 7,2 24 13 50 27 W 1017,1 56 0,0
28.02.2020 00:00:00 4,1 -0,3 2,5 5,8 7,2 27 15 64 35 W 1015,5 15 0,0
27.02.2020 23:00:00 4,2 0,2 3,2 5,8 7,2 35 19 53 28 W 1013,7 18 0,0
27.02.2020 22:00:00 4,8 0,0 4,2 5,9 7,2 26 14 59 32 W 1012,6 18 0,0
27.02.2020 21:00:00 5,0 0,2 4,0 5,9 7,2 37 20 75 40 W 1009,8 60 0,0
27.02.2020 20:00:00 5,3 1,0 3,7 5,8 7,2 46 25 105 57 W 1007,2 18 0,0
27.02.2020 19:00:00 6,5 0,6 5,4 5,8 7,2 52 28 101 55 W 1003,2 40 0,2
27.02.2020 18:00:00 9,0 4,4 7,1 5,7 7,3 63 34 116 63 W 996,2 20 0,0
27.02.2020 17:00:00 8,9 5,6 7,5 5,6 7,2 37 20 70 38 WSW 994,4 10 0,4
27.02.2020 16:00:00 8,8 5,5 4,1 5,6 7,2 30 16 65 35 WSW 994,9 15 0,2
27.02.2020 15:00:00 3,9 3,0 3,7 5,6 7,3 20 11 34 19 E 996,6 7 1,2
27.02.2020 14:00:00 3,5 1,9 2,6 5,6 7,3 18 10 31 17 E 998,1 5 0,8
27.02.2020 13:00:00 2,9 1,3 2,3 5,6 7,3 21 12 33 18 ESE 1000,2 20 1,4
27.02.2020 12:00:00 3,5 0,2 3,0 5,5 7,3 21 11 45 25 S 1003,1 7 0,2
27.02.2020 11:00:00 6,3 -2,1 5,1 5,5 7,3 16 8 26 14 SSE 1004,8 60 0,0
27.02.2020 10:00:00 4,8 -0,8 4,3 5,6 7,4 18 10 23 13 SE 1006,8 60 0,0
27.02.2020 09:00:00 4,5 -0,7 2,0 5,6 7,3 14 8 23 12 SE 1008,8 60 0,0
27.02.2020 08:00:00 2,1 -0,2 0,5 5,7 7,3 9 5 15 8 SSE 1010,6 60 0,0
27.02.2020 07:00:00 2,2 -0,4 1,0 5,7 7,4 10 5 15 8 SE 1011,8 60 0,0
27.02.2020 06:00:00 3,0 -0,3 1,6 5,8 7,4 8 5 22 12 SSW 1012,6 60 0,0
27.02.2020 05:00:00 2,8 -0,1 1,5 5,8 7,4 12 7 24 13 WSW 1013,4 30 0,0
27.02.2020 04:00:00 2,5 0,2 1,0 5,9 7,4 8 4 16 9 SSW 1013,8 60 0,0
27.02.2020 03:00:00 2,3 0,4 1,1 6,0 7,4 7 4 16 9 S 1014,2 60 0,0
27.02.2020 02:00:00 2,4 0,1 -0,1 6,1 7,4 8 5 26 14 W 1014,4 52 0,0
27.02.2020 01:00:00 1,9 0,0 0,4 6,2 7,4 17 9 35 19 WSW 1014,3 60 0,4
27.02.2020 00:00:00 2,6 0,3 1,8 6,2 7,4 24 13 40 21 WSW 1014,3 50 0,0
26.02.2020 23:00:00 2,3 0,4 1,0 6,3 7,4 20 11 37 20 SW 1013,9 60 0,0
26.02.2020 22:00:00 2,2 -0,1 1,0 6,4 7,4 19 10 29 16 WSW 1013,9 60 0,0
26.02.2020 21:00:00 2,1 0,3 1,2 6,5 7,4 17 9 29 16 W 1013,4 60 0,0
26.02.2020 20:00:00 2,6 0,3 1,6 6,6 7,4 22 12 38 21 W 1012,7 20 0,0
26.02.2020 19:00:00 2,8 -0,1 1,3 6,6 7,4 5 3 17 9 SW 1011,8 20 0,0
26.02.2020 18:00:00 2,3 -0,1 2,0 6,6 7,4 7 4 35 19 WSW 1011,3 60 0,0
26.02.2020 17:00:00 3,3 -0,3 3,0 6,6 7,4 26 14 35 19 W 1010,6 4,0 0,0
26.02.2020 16:00:00 4,7 0,5 2,6 6,6 7,4 23 12 50 27 W 1009,2 20 0,0
26.02.2020 15:00:00 2,8 0,7 0,3 6,6 7,4 31 17 55 30 W 1008,1 36 1,0
26.02.2020 14:00:00 5,1 0,1 5,9 6,5 7,4 29 16 58 31 W 1006,7 16 0,0
26.02.2020 13:00:00 4,8 0,2 5,3 6,5 7,4 31 17 59 32 W 1006,7 20 0,0
26.02.2020 12:00:00 4,9 0,7 5,8 6,5 7,4 27 14 62 34 W 1007,0 8 0,0
26.02.2020 11:00:00 3,6 -0,1 2,3 6,6 7,4 35 19 72 39 W 1006,0 16 0,0
26.02.2020 10:00:00 2,7 0,4 0,9 6,7 7,4 39 21 68 37 W 1005,1 12 0,2
26.02.2020 09:00:00 1,6 0,3 0,8 6,8 7,4 32 17 48 26 WSW 1004,2 2,5 1,4
26.02.2020 08:00:00 2,3 0,2 1,3 6,9 7,4 31 17 47 26 SW 1003,8 4,0 0,2
26.02.2020 07:00:00 3,6 -0,2 2,3 7,0 7,4 23 13 48 26 WSW 1004,3 15 0,0
26.02.2020 06:00:00 3,7 -0,5 2,3 7,2 7,4 28 15 63 34 WSW 1004,7 30 0,0
26.02.2020 05:00:00 3,7 0,0 2,3 7,3 7,4 34 19 61 33 W 1004,3 30 0,0
26.02.2020 04:00:00 4,2 0,7 2,8 7,4 7,4 27 15 58 32 W 1004,3 30 0,0
26.02.2020 03:00:00 4,3 1,3 2,3 7,5 7,4 29 16 64 35 W 1005,0 27 0,6
26.02.2020 02:00:00 3,8 0,8 2,3 7,6 7,4 39 21 94 51 W 1005,0 1,9 0,8
26.02.2020 01:00:00 5,2 2,2 3,9 7,6 7,4 36 19 70 38 WSW 1004,0 13 2,6
26.02.2020 00:00:00 7,7 2,6 6,4 7,7 7,3 27 15 52 28 WSW 1002,8 20 0,0
25.02.2020 23:00:00 8,2 3,4 6,4 7,8 7,3 19 11 42 23 WSW 1003,9 20 0,0
25.02.2020 22:00:00 7,9 3,9 5,8 7,8 7,3 6 4 26 14 WSW 1004,4 20 0,0
25.02.2020 21:00:00 7,7 4,1 6,5 7,9 7,3 11 6 32 17 WSW 1004,5 20 0,0
25.02.2020 20:00:00 8,1 4,1 7,1 7,9 7,4 21 12 40 22 W 1004,7 60 0,0
25.02.2020 19:00:00 8,8 4,4 7,1 7,9 7,4 16 9 42 23 WSW 1005,4 60 0,0
25.02.2020 18:00:00 9,4 5,2 8,1 7,9 7,3 23 13 54 29 WSW 1005,6 60 0,0
25.02.2020 17:00:00 10,4 5,8 9,6 7,8 7,3 27 15 54 29 WSW 1005,4 40 0,0
25.02.2020 16:00:00 10,1 6,1 9,5 7,8 7,3 24 13 47 25 WSW 1006,3 40 0,0
25.02.2020 15:00:00 9,9 6,1 9,0 7,7 7,3 25 13 50 27 WSW 1006,8 15 0,2
25.02.2020 14:00:00 10,0 6,5 9,6 7,6 7,3 25 14 51 28 WSW 1007,2 19 0,2
25.02.2020 13:00:00 9,8 5,8 9,3 7,6 7,3 29 16 53 29 WSW 1008,3 20 0,2
25.02.2020 12:00:00 9,6 5,2 8,8 7,6 7,3 28 15 48 26 WSW 1009,1 30 0,0
25.02.2020 11:00:00 9,3 5,1 8,0 7,6 7,2 29 15 52 28 WSW 1009,8 15 0,0
25.02.2020 10:00:00 8,2 4,4 7,6 7,6 7,2 5 3 15 8 ENE 1010,5 20 0,0
25.02.2020 09:00:00 8,2 3,4 7,9 7,7 7,2 8 4 20 11 NW 1010,7 40 0,0
25.02.2020 08:00:00 8,0 2,7 5,8 7,8 7,2 10 5 27 15 WSW 1011,1 40 0,0
25.02.2020 07:00:00 8,0 2,2 6,7 7,9 7,2 18 10 54 29 W 1011,4 44 0,0
25.02.2020 06:00:00 9,0 2,3 6,4 7,9 7,1 24 13 40 21 W 1011,5 40 0,0
25.02.2020 05:00:00 7,9 3,7 5,6 8,1 7,2 11 6 24 13 WNW 1011,6 40 0,0
25.02.2020 04:00:00 9,6 1,0 8,6 8,1 7,1 15 8 37 20 NW 1011,5 60 0,0
25.02.2020 03:00:00 11,0 1,2 6,9 8,3 7,1 23 12 39 21 W 1011,6 60 0,0
25.02.2020 02:00:00 9,9 4,3 2,6 8,4 7,1 12 6 30 16 W 1012,6 60 0,0
25.02.2020 01:00:00 5,5 2,7 1,8 8,6 7,1 6 4 16 9 W 1013,6 52 0,0
25.02.2020 00:00:00 5,6 3,3 2,1 8,7 7,1 5 3 11 6 NNW 1014,3 32 0,0
24.02.2020 23:00:00 6,2 3,2 2,3 8,8 7,1 4 2 10 6 SE 1014,7 40 0,0
24.02.2020 22:00:00 8,0 4,2 3,3 9,0 7,0 5 3 10 5 SSE 1015,4 40 0,0
24.02.2020 21:00:00 8,1 4,3 3,7 9,0 7,0 3 2 6 3 ESE 1015,9 40 0,0
24.02.2020 20:00:00 9,5 4,9 5,0 9,1 7,0 4 2 14 7 NE 1015,9 40 0,0
24.02.2020 19:00:00 13,8 5,2 7,8 9,0 7,0 9 5 18 10 S 1015,5 40 0,0
24.02.2020 18:00:00 15,3 6,6 11,8 9,0 7,0 11 6 34 19 SW 1015,7 40 0,0
24.02.2020 17:00:00 17,1 7,7 16,3 8,8 7,0 16 8 36 19 W 1016,2 40 0,0
24.02.2020 16:00:00 17,4 8,0 17,5 8,6 7,0 21 12 38 20 W 1017,0 40 0,0
24.02.2020 15:00:00 17,1 9,0 18,0 8,4 6,9 24 13 42 23 W 1018,1 40 0,0
24.02.2020 14:00:00 16,8 9,7 15,5 8,2 6,9 14 7 37 20 W 1019,6 40 0,0
24.02.2020 13:00:00 13,6 9,4 14,4 8,1 6,9 12 6 23 12 NNW 1021,5 40 0,0
24.02.2020 12:00:00 13,9 8,9 13,2 8,0 6,9 16 9 24 13 WNW 1022,7 40 0,0
24.02.2020 11:00:00 12,0 8,7 12,8 7,9 6,9 14 8 27 15 W 1024,0 40 0,0
24.02.2020 10:00:00 11,5 8,5 10,8 7,9 6,9 17 9 26 14 W 1024,5 40 0,0
24.02.2020 09:00:00 10,7 8,5 10,5 7,9 6,9 13 7 23 13 W 1025,2 40 0,0
24.02.2020 08:00:00 10,6 8,4 10,0 7,9 6,9 14 8 24 13 W 1025,5 40 0,0
24.02.2020 07:00:00 10,8 8,4 10,2 7,9 6,9 10 6 29 15 W 1025,6 40 0,0
24.02.2020 06:00:00 11,3 8,2 10,5 7,8 6,9 23 13 32 17 W 1025,7 40 0,0
24.02.2020 05:00:00 11,2 8,2 10,5 7,8 6,9 8 4 15 8 WNW 1026,5 40 0,0
24.02.2020 04:00:00 11,8 8,3 10,8 7,8 6,9 3 2 30 16 SSW 1026,5 40 0,0
24.02.2020 03:00:00 12,1 8,4 11,5 7,7 6,8 19 11 39 21 W 1027,0 60 0,0
24.02.2020 02:00:00 13,1 8,0 12,4 7,7 6,9 18 10 47 26 W 1027,0 60 0,0
24.02.2020 01:00:00 13,7 7,9 12,9 7,7 6,9 24 13 41 22 W 1026,9 60 0,0
24.02.2020 00:00:00 13,9 7,6 13,2 7,6 6,9 29 15 54 29 WSW 1026,5 40 0,0
23.02.2020 23:00:00 14,6 7,2 13,6 7,5 6,8 22 12 46 25 W 1026,3 60 0,0
23.02.2020 22:00:00 15,2 5,9 14,1 7,5 6,8 25 13 43 23 W 1025,8 40 0,0
23.02.2020 21:00:00 15,6 5,8 14,1 7,4 6,8 19 10 38 20 WSW 1025,6 40 0,0
23.02.2020 20:00:00 15,7 5,9 14,5 7,3 6,8 19 11 40 21 W 1025,2 40 0,0
23.02.2020 19:00:00 16,0 5,0 14,7 7,2 6,8 20 11 44 24 WSW 1024,8 30 0,0
23.02.2020 18:00:00 16,3 4,6 15,1 7,1 6,8 22 12 52 28 WSW 1024,7 30 0,0
23.02.2020 17:00:00 16,7 5,3 15,8 7,0 6,8 27 15 49 27 W 1024,2 30 0,0
23.02.2020 16:00:00 16,9 6,4 16,1 6,8 6,8 28 15 48 26 WSW 1024,0 30 0,0
23.02.2020 15:00:00 16,5 6,6 16,0 6,7 6,8 14 8 54 29 W 1024,6 30 0,0
23.02.2020 14:00:00 17,0 5,3 15,2 6,7 6,8 26 14 52 28 WSW 1024,4 30 0,0
23.02.2020 13:00:00 15,2 3,0 12,4 6,6 6,8 20 11 37 20 WSW 1025,9 30 0,0
23.02.2020 12:00:00 13,0 -0,3 11,2 6,5 6,8 7 4 17 9 NE 1027,1 30 0,0
23.02.2020 11:00:00 11,8 1,1 10,7 6,5 6,8 10 5 30 16 SSW 1027,6 51 0,0
23.02.2020 10:00:00 10,7 2,5 9,3 6,5 6,8 14 8 24 13 W 1028,6 30 0,0
23.02.2020 09:00:00 8,6 2,4 7,4 6,5 6,8 5 3 9 5 NNE 1028,9 30 0,0
23.02.2020 08:00:00 8,9 2,7 7,0 6,5 6,8 3 1 9 5 ENE 1028,5 30 0,0
23.02.2020 07:00:00 8,1 2,7 7,2 6,5 6,8 7 4 14 7 NW 1029,0 30 0,0
23.02.2020 06:00:00 9,9 1,0 8,5 6,5 6,8 3 2 17 9 NNE 1029,2 30 0,0
23.02.2020 05:00:00 10,8 0,2 9,5 6,5 6,8 5 3 29 15 W 1029,8 30 0,0
23.02.2020 04:00:00 10,5 0,5 8,3 6,5 6,8 14 7 25 14 W 1029,5 60 0,0
23.02.2020 03:00:00 9,5 0,4 7,7 6,5 6,8 8 4 11 6 NNW 1030,0 60 0,0
23.02.2020 02:00:00 9,8 -0,7 6,7 6,5 6,8 6 4 12 6 SW 1030,2 60 0,0
23.02.2020 01:00:00 9,5 -0,7 7,9 6,5 6,8 7 4 23 12 WNW 1030,9 60 0,0
23.02.2020 00:00:00 9,5 -1,9 7,0 6,6 6,8 6 3 13 7 NNW 1031,4 30 0,0
22.02.2020 23:00:00 9,8 -1,3 5,9 6,5 6,8 9 5 15 8 WSW 1031,2 30 0,0
22.02.2020 22:00:00 8,0 0,2 6,0 6,5 6,8 4 2 9 5 WSW 1031,5 40 0,0
22.02.2020 21:00:00 10,5 -2,9 6,9 6,5 6,8 3 2 8 5 SE 1031,0 40 0,0
22.02.2020 20:00:00 10,6 -0,9 7,3 6,5 6,8 2 1 14 8 W 1030,7 40 0,0
22.02.2020 19:00:00 11,4 -2,4 6,7 6,4 6,8 7 4 13 7 SSE 1030,3 50 0,0

tt = Température de l'air
td = dewpoint
tt 5cm = Température de l'air 5cm
tt -20cm = Température de l'air -20cm
tt -100cm = Température de l'air -100cm
ff = Vitesse du vent
fx = gusts
dd = Direction du vent
ppp = reduced air pressure
vv = visibility
rr = Quantités de précipitations

stations d'obs. à proximité